Regional Weather Roundup
Issued by NWS

Home | Current Version | Previous Version | Text Only | Print | Product List | Glossary Off
Versions: 1 2 3 4 5 6 7 8 9 10 11 12 13 14 15 16 17 18 19 20 21 22 23 24 25 26 27 28 29 30 31 32 33 34 35 36 37 38 39 40 41 42 43 44 45 46 47 48 49 50

000
ASUS43 KLOT 222308
RWRIL

ILLINOIS REGIONAL WEATHER ROUNDUP
NATIONAL WEATHER SERVICE CHICAGO/ROMEOVILLE IL
600 PM CDT FRI MAY 22 2015

NOTE: "FAIR" INDICATES FEW OR NO CLOUDS BELOW 12,000 FEET WITH NO
SIGNIFICANT WEATHER AND/OR OBSTRUCTIONS TO VISIBILITY.

* THESE STATIONS ARE NOT UNDER NWS QUALITY CONTROL. THEY ALSO MAY NOT
  REPORT WEATHER SUCH AS PRECIPITATION OR FOG.

ILZ001-002-007-009-015-016-024-230000-
NORTHWEST ILLINOIS

CITY           SKY/WX    TMP DP  RH WIND       PRES   REMARKS
MOLINE         MOSUNNY   73  38  27 SW6       30.18S
STERLING*      CLOUDY    72  45  37 N3        30.19S
SAVANNA*       CLOUDY    73  38  28 CALM      30.19F
$$

ILZ003-004-008-010-011-017-018-230000-
NORTH CENTRAL ILLINOIS

CITY           SKY/WX    TMP DP  RH WIND       PRES   REMARKS
ROCKFORD       CLOUDY    72  38  29 CALM      30.23R
FREEPORT*      PTSUNNY   70  41  34 W3        30.22F
ROCHELLE*      PTSUNNY   73  37  26 CALM      30.21F
DE KALB*       PTSUNNY   70  36  28 E12       30.23R HAZE
PERU*          CLOUDY    75  38  25 CALM      30.20S
$$

ILZ005-006-012>014-019>023-230000-
NORTHEAST ILLINOIS

CITY           SKY/WX    TMP DP  RH WIND       PRES   REMARKS
CHICAGO-OHARE  CLOUDY    60  25  26 E12       30.26R
CHICAGO-MIDWAY PTSUNNY   58  30  34 E14       30.26S
AURORA         PTSUNNY   69  34  27 E14       30.22S
LANSING*       PTSUNNY   58  29  33 NE10      30.26S
JOLIET*        PTSUNNY   66  37  33 E13       30.23S
WAUKEGAN       PTSUNNY   53  27  36 E7        30.26S
DUPAGE AIRPORT CLOUDY    65  31  28 E14       30.24R
KANKAKEE*      PTSUNNY   68  39  34 NE12      30.22F
WHEELING       PTSUNNY   57  24  28 E8        30.28R
MORRIS*        PTSUNNY   71  40  33 E15       30.20F
ROMEOVILLE*    PTSUNNY   63  33  31 E15       30.23F
NORTHERLY ISL    N/A     50  35  56 E5          N/A
$$

LMZ740>746-230000-
SOUTHERN LAKE MICHIGAN

STATION/POSITION SKY/WX   TEMP    WIND        PRES    VSBY  WAVE
                          AIR SEA DIR/SP/G                  HT/PER
                          (F)     (DEG/KT/KT) (MB)    (MI)  (FT/S)
SOUTHERN BUOY              42 38   50/ 10/ 10 1025.5F         0
HARRISON CRIB              48      50/ 10/ 11   N/A
BURNHAM HARBOR             50      80/  5/  9   N/A
CALUMET HARBOR             50      40/  5/  7   N/A
BURNS HARBOR               53      50/ 12/ 12 1025.4R
MICHIGAN CITY              52      30/ 12/ 13   N/A
MICHIGAN CITY 6N           52 51   60/  4/  6   N/A           2/ 3
ST. JOSEPH                 52 53   60/ 14/ 16   N/A           2/ 3
$$

ILZ025>027-034>036-040-047-049-050-058-095>099-230000-
WEST-CENTRAL ILLINOIS

CITY           SKY/WX    TMP DP  RH WIND       PRES   REMARKS
QUINCY         CLOUDY    71  51  49 SW10      30.21S
GALESBURG*     MOSUNNY   73  43  33 W6        30.19S
MACOMB*        CLOUDY    74  32  21 SW7       30.22S
JACKSONVILLE*  CLOUDY    77  37  23 SW5       30.21R
PITTSFIELD*    CLOUDY    73  53  49 SW8       30.23S
$$

ILZ028>032-037-038-041>044-048-051>054-059>061-230000-
CENTRAL ILLINOIS

CITY           SKY/WX    TMP DP  RH WIND       PRES   REMARKS
PONTIAC        CLOUDY    77  37  23 NE7       30.20S
BLOOMINGTON    MOSUNNY   77  39  25 W6        30.22S
DECATUR        MOSUNNY   75  40  28 SW5       30.21R
PEORIA         MOSUNNY   77  42  28 CALM      30.19S
LACON*         PTSUNNY   76  39  26 S5        30.18S
LINCOLN*       SUNNY     78  35  21 W3        30.18S
SPRINGFIELD    MOSUNNY   77  42  28 CALM      30.20F
TAYLORVILLE    PTSUNNY   73  45  35 S3        30.21S
$$

ILZ033-039-045-046-055>057-062-063-230000-
EAST-CENTRAL ILLINOIS

CITY           SKY/WX    TMP DP  RH WIND       PRES   REMARKS
CHAMPAIGN      CLOUDY    77  39  25 W6        30.21R
DANVILLE*      CLOUDY    75  42  30 NE3       30.18F
RANTOUL*       CLOUDY    78  39  24 N3        30.20S
MATTOON        CLOUDY    74  41  30 W7        30.20S
PARIS*         CLOUDY    78  39  25 CALM      30.20S
$$

ILZ079-100>102-230000-
SOUTHWEST ILLINOIS

CITY           SKY/WX    TMP DP  RH WIND       PRES   REMARKS
BELLEVILLE     CLOUDY    74  51  43 W5        30.21S
CAHOKIA*       CLOUDY    74  50  42 W3        30.22F
SPARTA*        CLOUDY    71  53  53 SW6       30.24S
$$

ILZ064>066-069>071-074>076-080>082-084>086-088>090-092>094-230000-
SOUTH-CENTRAL ILLINOIS

CITY           SKY/WX    TMP DP  RH WIND       PRES   REMARKS
CARBONDALE     CLOUDY    70  52  52 SW6       30.25S
CAIRO*         MOSUNNY   70  49  46 CALM      30.25F
EFFINGHAM*     CLOUDY    73  37  26 W6        30.23S
MARION         MOSUNNY   72  54  53 SW12      30.26S
MT. VERNON     CLOUDY    73  52  46 SW9       30.24S
CENTRALIA*     CLOUDY    75  46  35 SW8       30.23S
SALEM*         CLOUDY    75  47  37 W3        30.23S
METROPOLIS*    MOSUNNY   72  51  48 W5        30.24F
$$

ILZ067-068-072-073-078-083-087-091-230000-
SOUTHEAST ILLINOIS

CITY           SKY/WX    TMP DP  RH WIND       PRES   REMARKS
LAWRENCEVILLE  CLOUDY    73  46  38 W5        30.23S
FLORA*         CLOUDY    72  46  38 CALM      30.23F
FAIRFIELD*     CLOUDY    72  54  53 CALM      30.22S
HARRISBURG*    CLOUDY    72  52  49 SW7       30.26S
ROBINSON*      CLOUDY    74  44  34 SW7       30.23S
CARMI*         CLOUDY    73  45  36 SW8       30.23S
$$

ABBREVIATIONS USED IN REMARKS
   TC - TEMPERATURE IN CELSIUS
  WCI - WIND CHILL INDEX
   HX - HEAT INDEX
  VSB - VISIBILITY
$$



USA.gov is the U.S. government's official web portal to all federal, state and local government web resources and services.